Weather reports worldwide

Advertisment
Benson, United Kingdom (3658): temperature & dewpoint: 06.11.2019 05:00:00 - 12.11.2019 05:00:00 (GMT)Benson, United Kingdom (3658): temperature -20cm & temperature -100cm: 06.11.2019 05:00:00 - 12.11.2019 05:00:00 (GMT)Benson, United Kingdom (3658): wind speed & gusts: 06.11.2019 05:00:00 - 12.11.2019 05:00:00 (GMT)Benson, United Kingdom (3658): wind direction: 06.11.2019 05:00:00 - 12.11.2019 05:00:00 (GMT)Benson, United Kingdom (3658): reduced air pressure: 06.11.2019 05:00:00 - 12.11.2019 05:00:00 (GMT)Benson, United Kingdom (3658): visibility: 06.11.2019 05:00:00 - 12.11.2019 05:00:00 (GMT)Benson, United Kingdom (3658): precipitation: 06.11.2019 05:00:00 - 12.11.2019 05:00:00 (GMT)
Date & Time tt [°C] td [°C] tt -20cm [°C] tt -100cm [°C] ff [km/h] ff [kn] fx [km/h] fx [kn] dd ppp [hPa] vv [km] rr [mm]
12.11.2019 05:00:00 4,1 1,1 - - 15 8 - - SW 999,9 30 -
12.11.2019 04:00:00 4,7 1,5 - - 13 7 - - WSW 1000,1 30 0,0
12.11.2019 03:00:00 5,1 1,8 - - 16 9 - - WSW 1000,3 10 0,0
12.11.2019 02:00:00 4,0 1,9 - - 13 7 - - SSW 1000,8 10 0,0
12.11.2019 01:00:00 4,9 1,8 - - 15 8 - - SW 1001,2 35 0,0
12.11.2019 00:00:00 5,4 1,7 - - 15 8 - - WSW 1001,3 40 0,0
11.11.2019 23:00:00 3,7 1,4 - - 9 5 - - S 1001,5 10 0,0
11.11.2019 22:00:00 2,6 0,7 - - 13 7 - - S 1001,7 10 0,0
11.11.2019 21:00:00 3,0 1,2 - - 15 8 - - S 1002,0 10 0,0
11.11.2019 20:00:00 4,8 1,6 - - 15 8 - - WSW 1002,1 10 0,0
11.11.2019 19:00:00 5,5 1,6 - - 16 9 - - WSW 1002,1 10 0,0
11.11.2019 18:00:00 6,1 1,6 - - 16 9 - - WSW 1002,0 30 0,0
11.11.2019 17:00:00 7,2 2,4 - - 21 11 - - WSW 1001,9 10 0,2
11.11.2019 16:00:00 7,1 3,4 - - 22 12 52 28 W 1001,5 10 0,0
11.11.2019 15:00:00 8,8 2,3 - - 21 11 - - W 1001,3 10 0,0
11.11.2019 14:00:00 8,9 2,6 - - 22 12 - - W 1001,5 30 0,0
11.11.2019 13:00:00 8,8 3,1 - - 21 11 - - W 1002,1 10 0,0
11.11.2019 12:00:00 8,7 3,3 - - 24 13 - - W 1001,9 10 0,0
11.11.2019 11:00:00 7,4 3,9 - - 21 11 - - W 1002,4 30 0,0
11.11.2019 10:00:00 7,0 3,8 - - 22 12 - - W 1002,0 10 0,0
11.11.2019 09:00:00 5,9 3,3 8,2 10,7 22 12 - - W 1001,6 30 0,0
11.11.2019 08:00:00 5,1 3,1 - - 15 8 - - W 1001,4 10 0,0
11.11.2019 07:00:00 5,2 3,0 - - 18 10 - - W 1000,9 10 0,0
11.11.2019 06:00:00 7,2 3,7 - - 18 10 - - WNW 1000,3 50 0,2
11.11.2019 05:00:00 8,0 7,1 - - 18 10 - - SSW 1000,1 29 0,2
11.11.2019 04:00:00 7,5 7,0 - - 21 11 - - S 1001,5 10 0,6
11.11.2019 03:00:00 6,7 6,0 - - 21 11 - - SSE 1003,1 10 0,6
11.11.2019 02:00:00 6,8 4,8 - - 22 12 - - SSE 1004,7 24 0,0
11.11.2019 01:00:00 6,0 5,0 - - 16 9 - - S 1006,7 10 0,4
11.11.2019 00:00:00 5,1 4,3 - - 9 5 - - SSE 1009,0 10 0,0
10.11.2019 23:00:00 5,7 4,0 - - 11 6 - - S 1010,4 10 0,0
10.11.2019 22:00:00 5,2 4,2 - - 11 6 - - SE 1011,0 18 0,0
10.11.2019 21:00:00 3,4 3,2 - - 5 3 - - SSE 1011,9 10 0,0
10.11.2019 20:00:00 2,3 2,0 - - 2 1 - - SSE 1012,8 10 0,0
10.11.2019 19:00:00 2,3 2,1 - - 0 0 - - N 1012,0 24 0,0
10.11.2019 18:00:00 1,5 1,2 - - 5 3 - - E 1013,9 18 0,0
10.11.2019 17:00:00 1,9 0,7 - - 4 2 - - SSE 1014,6 24 0,0
10.11.2019 16:00:00 5,7 3,4 - - 8 4 - - NNE 1014,7 30 0,0
10.11.2019 15:00:00 8,9 4,7 - - 9 5 - - N 1014,5 35 0,0
10.11.2019 14:00:00 9,1 4,6 - - 9 5 - - NNE 1014,2 10 0,0
10.11.2019 13:00:00 8,9 5,2 - - 13 7 - - NNE 1014,1 35 0,0
10.11.2019 12:00:00 8,6 5,4 - - 15 8 - - N 1014,3 35 0,0
10.11.2019 11:00:00 7,5 5,4 - - 15 8 - - NNE 1014,4 30 0,0
10.11.2019 10:00:00 5,9 4,4 - - 18 10 - - NNE 1013,9 10 0,0
10.11.2019 09:00:00 5,8 4,6 8,2 11,0 16 9 - - N 1012,8 10 0,0
10.11.2019 08:00:00 5,7 4,5 - - 21 11 - - NNE 1011,8 10 0,0
10.11.2019 07:00:00 5,8 4,9 - - 21 11 - - NNE 1010,4 25 0,0
10.11.2019 06:00:00 5,2 4,2 - - 21 11 - - NNE 1009,1 24 0,2
10.11.2019 05:00:00 5,4 4,6 - - 24 13 - - NNE 1008,0 10 0,0
10.11.2019 04:00:00 5,5 4,8 - - 28 15 - - NE 1006,4 10 0,4
10.11.2019 03:00:00 6,0 5,4 - - 26 14 - - NNE 1004,9 10 0,0
10.11.2019 02:00:00 6,7 6,0 - - 11 6 - - NE 1003,9 10 0,0
10.11.2019 01:00:00 6,8 5,7 - - 22 12 - - ENE 1002,7 10 0,0
10.11.2019 00:00:00 6,8 6,3 - - 16 9 - - E 1001,7 10 0,2
09.11.2019 23:00:00 6,4 6,2 - - 11 6 - - N 1001,0 2,5 0,2
09.11.2019 22:00:00 6,5 6,0 - - 15 8 - - N 1000,6 6 0,8
09.11.2019 21:00:00 6,5 6,0 - - 9 5 - - N 1000,5 8 0,2
09.11.2019 20:00:00 6,6 5,9 - - 11 6 - - NE 1000,4 23 0,6
09.11.2019 19:00:00 6,6 6,0 - - 16 9 - - ESE 1000,6 4,4 1,0
09.11.2019 18:00:00 6,7 5,7 - - 26 14 - - E 1000,1 10 0,2
09.11.2019 17:00:00 6,2 5,5 - - 18 10 - - E 1000,4 8 0,2
09.11.2019 16:00:00 6,2 5,3 - - 21 11 - - E 1000,8 9 0,6
09.11.2019 15:00:00 5,8 5,1 - - 22 12 - - E 1001,1 6 2,2
09.11.2019 14:00:00 5,2 4,6 - - 24 13 - - E 1002,6 5 2,6
09.11.2019 13:00:00 4,6 3,7 - - 24 13 - - E 1003,6 5 1,4
09.11.2019 12:00:00 4,6 2,5 - - 18 10 - - ESE 1004,3 18 0,0
09.11.2019 11:00:00 4,7 2,7 - - 16 9 - - SE 1005,6 22 0,0
09.11.2019 10:00:00 3,9 2,8 - - 9 5 - - SSE 1006,9 10 0,0
09.11.2019 09:00:00 1,9 1,9 8,7 11,2 9 5 - - SE 1007,8 16 0,0
09.11.2019 08:00:00 -2,1 -2,3 - - 0 0 - - N 1009,0 0,8 0,0
09.11.2019 07:00:00 -3,9 -4,2 - - 0 0 - - N 1009,7 6 0,0
09.11.2019 06:00:00 -4,0 -4,5 - - 0 0 - - N 1010,1 2,3 0,0
09.11.2019 05:00:00 -3,3 -3,6 - - 5 3 - - ESE 1010,7 5 0,0
09.11.2019 04:00:00 -3,3 -3,6 - - 4 2 - - S 1011,4 0,1 0,0
09.11.2019 03:00:00 -3,1 -3,4 - - 4 2 - - SE 1012,0 5 0,0
09.11.2019 02:00:00 -1,0 -1,1 - - 5 3 - - SSW 1012,5 0,3 0,0
09.11.2019 01:00:00 -0,9 -1,1 - - 2 1 - - S 1012,4 3,3 0,0
09.11.2019 00:00:00 -1,1 -1,5 - - 2 1 - - SSW 1012,3 7 0,0
08.11.2019 23:00:00 -0,2 -1,0 - - 4 2 - - SW 1012,6 8 0,0
08.11.2019 22:00:00 2,0 0,2 - - 2 1 - - WNW 1012,4 10 0,0
08.11.2019 21:00:00 5,2 3,8 - - 8 4 - - NW 1012,3 10 0,0
08.11.2019 20:00:00 5,7 4,2 - - 15 8 - - NW 1012,0 10 0,0
08.11.2019 19:00:00 5,9 4,1 - - 13 7 - - NW 1011,6 10 0,0
08.11.2019 18:00:00 6,0 4,7 - - 11 6 - - NW 1011,3 10 0,4
08.11.2019 17:00:00 6,9 3,8 - - 11 6 - - NW 1010,4 10 0,0
08.11.2019 16:00:00 7,5 3,0 - - 11 6 - - NNW 1009,8 10 0,0
08.11.2019 15:00:00 7,5 3,8 - - 9 5 - - N 1009,2 10 0,0
08.11.2019 14:00:00 7,6 3,9 - - 16 9 - - N 1008,7 10 0,0
08.11.2019 13:00:00 8,0 4,9 - - 15 8 - - N 1008,2 30 0,0
08.11.2019 12:00:00 6,9 5,8 - - 13 7 - - N 1007,9 10 0,0
08.11.2019 11:00:00 4,8 4,7 - - 4 2 - - NNE 1007,7 10 0,0
08.11.2019 10:00:00 3,7 3,7 - - 8 4 - - NNE 1007,0 5 0,2
08.11.2019 09:00:00 2,9 2,9 9,0 11,5 5 3 - - N 1005,8 4,0 0,0
08.11.2019 08:00:00 0,5 0,5 - - 2 1 - - SSW 1004,9 2,5 0,0
08.11.2019 07:00:00 -0,5 -0,6 - - 2 1 - - S 1003,8 0,9 0,0
08.11.2019 06:00:00 -2,5 -2,7 - - 2 1 - - NE 1003,0 0,2 0,0
08.11.2019 05:00:00 -3,0 -3,3 - - 2 1 - - SSE 1002,2 16 0,0
08.11.2019 04:00:00 -3,3 -3,8 - - 2 1 - - ESE 1001,5 10 0,0
08.11.2019 03:00:00 -1,3 -1,5 - - 2 1 - - NNE 1000,7 28 0,0
08.11.2019 02:00:00 -2,0 -2,2 - - 2 1 - - SW 1000,2 2,0 0,0
08.11.2019 01:00:00 -3,0 -3,7 - - 0 0 - - N 999,4 10 0,0
08.11.2019 00:00:00 -2,2 -2,9 - - 0 0 - - N 998,9 35 0,0
07.11.2019 23:00:00 -1,7 -2,4 - - 2 1 - - S 998,3 30 0,0
07.11.2019 22:00:00 -0,6 -1,2 - - 0 0 - - N 997,7 29 0,0
07.11.2019 21:00:00 1,0 0,3 - - 5 3 - - SSE 997,1 10 0,0
07.11.2019 20:00:00 3,1 2,2 - - 5 3 - - S 996,5 10 0,0
07.11.2019 19:00:00 2,9 2,2 - - 8 4 - - S 995,9 35 0,0
07.11.2019 18:00:00 2,7 0,8 - - 8 4 - - S 995,2 28 0,0
07.11.2019 17:00:00 6,3 2,7 - - 8 4 - - SW 994,5 10 0,0
07.11.2019 16:00:00 8,6 3,8 - - 9 5 - - SW 993,8 10 0,0
07.11.2019 15:00:00 9,5 3,4 - - 15 8 - - WSW 993,2 10 0,0
07.11.2019 14:00:00 10,3 4,4 - - 18 10 - - SW 992,9 10 0,0
07.11.2019 13:00:00 8,9 3,6 - - 21 11 - - WSW 992,7 10 0,0
07.11.2019 12:00:00 9,8 5,0 - - 21 11 - - WSW 992,4 10 0,0
07.11.2019 11:00:00 8,8 4,4 - - 21 11 - - WSW 992,2 10 0,0
07.11.2019 10:00:00 7,7 4,6 - - 22 12 - - WSW 992,0 10 0,0
07.11.2019 09:00:00 6,9 5,0 9,7 11,7 15 8 - - SW 991,6 10 0,0
07.11.2019 08:00:00 6,1 4,9 - - 16 9 - - WSW 991,2 10 0,0
07.11.2019 07:00:00 6,0 4,9 - - 13 7 - - WSW 990,5 10 0,0
07.11.2019 06:00:00 6,6 6,1 - - 9 5 - - WSW 990,0 22 0,0
07.11.2019 05:00:00 6,4 6,2 - - 5 3 - - WSW 990,0 10 0,0
07.11.2019 04:00:00 6,4 6,2 - - 5 3 - - W 990,2 10 1,6
07.11.2019 03:00:00 6,6 6,4 - - 8 4 - - NW 990,7 3,6 2,4
07.11.2019 02:00:00 6,7 6,4 - - 4 2 - - NW 991,7 2,7 7,6
07.11.2019 01:00:00 7,1 6,7 - - 15 8 - - ESE 993,0 3,1 4,0
07.11.2019 00:00:00 7,1 6,0 - - 21 11 - - ESE 993,9 7 0,2
06.11.2019 23:00:00 6,9 5,5 - - 22 12 - - ESE 994,8 21 0,0
06.11.2019 22:00:00 6,6 5,4 - - 22 12 - - ESE 996,2 10 0,0
06.11.2019 21:00:00 6,2 5,0 - - 22 12 - - ESE 997,5 10 0,0
06.11.2019 20:00:00 6,4 5,2 - - 22 12 - - ESE 998,3 10 0,0
06.11.2019 19:00:00 6,8 5,4 - - 21 11 - - SE 999,3 10 0,0
06.11.2019 18:00:00 7,3 5,7 - - 15 8 - - SE 1000,5 10 0,0
06.11.2019 17:00:00 7,6 5,7 - - 16 9 - - SE 1001,1 10 0,2
06.11.2019 16:00:00 8,0 5,6 - - 11 6 - - SSE 1001,9 10 0,0
06.11.2019 15:00:00 8,4 5,5 - - 11 6 - - SSE 1002,5 10 0,0
06.11.2019 14:00:00 8,3 5,1 - - 13 7 - - S 1003,4 10 0,0
06.11.2019 13:00:00 9,2 4,9 - - 15 8 - - S 1003,8 10 0,0
06.11.2019 12:00:00 8,4 5,4 - - 13 7 - - SSE 1004,6 10 0,0
06.11.2019 11:00:00 7,9 5,2 - - 4 2 - - S 1005,5 10 0,0
06.11.2019 10:00:00 6,2 4,9 - - 5 3 - - SE 1006,2 10 0,0
06.11.2019 09:00:00 4,5 4,5 10,2 11,7 2 1 - - E 1006,7 5 0,0
06.11.2019 08:00:00 1,9 1,9 - - 0 0 - - N 1007,0 6 0,0
06.11.2019 07:00:00 1,6 1,6 - - 2 1 - - E 1006,6 7 0,0
06.11.2019 06:00:00 0,4 0,3 - - 4 2 - - SE 1006,7 4,8 0,0
06.11.2019 05:00:00 -0,8 -1,0 - - 2 1 - - WNW 1007,3 5 0,0

tt = temperature
td = dewpoint
tt -20cm = temperature -20cm
tt -100cm = temperature -100cm
ff = wind speed
fx = gusts
dd = wind direction
ppp = reduced air pressure
vv = visibility
rr = precipitation

Next stations